Hourly Weather Altenberg

Today, 11 May, Tuesday

Time Temperature Precipitation Wind Pressure Humidity
00:00 +14°C° 0 mm 2 mps 700 mmHg 94%
01:00 +13°C° 0 mm 2 mps 700 mmHg 94%
02:00 +12°C° 0 mm 2 mps 700 mmHg 95%
03:00 +12°C° 0 mm 2 mps 699 mmHg 95%
04:00 +10°C° 0 mm 2 mps 699 mmHg 95%
05:00 +12°C° 0 mm 2 mps 699 mmHg 91%
06:00 +13°C° 0 mm 2 mps 699 mmHg 87%
07:00 +15°C° 0 mm 2 mps 699 mmHg 83%
08:00 +16°C° 0 mm 3 mps 699 mmHg 77%
09:00 +18°C° 0 mm 3 mps 699 mmHg 70%
10:00 +19°C° 0 mm 3 mps 699 mmHg 64%
11:00 +20°C° 0 mm 3 mps 699 mmHg 61%
12:00 +21°C° 0 mm 3 mps 699 mmHg 59%
13:00 +22°C° 0 mm 3 mps 699 mmHg 56%
14:00 +22°C° 0 mm 3 mps 699 mmHg 57%
15:00 +22°C° 0 mm 3 mps 698 mmHg 57%
16:00 +22°C° 0 mm 3 mps 698 mmHg 57%
17:00 +20°C° 0.5 mm 2 mps 698 mmHg 68%
18:00 +18°C° 0.5 mm 2 mps 697 mmHg 78%
19:00 +17°C° 0.5 mm 2 mps 697 mmHg 88%
20:00 +16°C° 0.5 mm 2 mps 697 mmHg 91%
21:00 +15°C° 0.5 mm 2 mps 698 mmHg 94%
22:00 +14°C° 0.5 mm 2 mps 698 mmHg 96%
23:00 +12°C° 0.4 mm 3 mps 698 mmHg 96%

Tomorrow, 12 May, Wednesday

Time Temperature Precipitation Wind Pressure Humidity
00:00 +12°C° 0.4 mm 3 mps 698 mmHg 97%
01:00 +12°C° 0.4 mm 3 mps 698 mmHg 97%
02:00 +11°C° 0.1 mm 3 mps 699 mmHg 96%
03:00 +11°C° 0.1 mm 3 mps 699 mmHg 96%
04:00 +10°C° 0.1 mm 3 mps 699 mmHg 95%
05:00 +10°C° 0.1 mm 3 mps 699 mmHg 95%
06:00 +10°C° 0.1 mm 3 mps 700 mmHg 95%
07:00 +10°C° 0.1 mm 2 mps 700 mmHg 94%
08:00 +10°C° 0 mm 2 mps 700 mmHg 93%
09:00 +10°C° 0 mm 2 mps 700 mmHg 92%
10:00 +12°C° 0 mm 2 mps 700 mmHg 91%
11:00 +12°C° 0.1 mm 2 mps 700 mmHg 90%
12:00 +12°C° 0.1 mm 2 mps 700 mmHg 90%
13:00 +12°C° 0.1 mm 2 mps 700 mmHg 89%
14:00 +12°C° 0.1 mm 2 mps 700 mmHg 90%
15:00 +12°C° 0.1 mm 2 mps 700 mmHg 90%
16:00 +11°C° 0.1 mm 3 mps 700 mmHg 91%
17:00 +11°C° 0.4 mm 3 mps 699 mmHg 92%
18:00 +10°C° 0.4 mm 3 mps 699 mmHg 94%
19:00 +10°C° 0.4 mm 3 mps 699 mmHg 96%
20:00 +10°C° 0.2 mm 3 mps 699 mmHg 96%
21:00 +9°C° 0.2 mm 3 mps 699 mmHg 97%
22:00 +9°C° 0.2 mm 3 mps 698 mmHg 97%
23:00 +9°C° 1.5 mm 2 mps 698 mmHg 97%

Day after tomorrow, 13 May, Thursday

Time Temperature Precipitation Wind Pressure Humidity
00:00 +9°C° 1.5 mm 2 mps 697 mmHg 98%
01:00 +9°C° 1.5 mm 2 mps 697 mmHg 98%
02:00 +8°C° 3.1 mm 2 mps 696 mmHg 98%
03:00 +8°C° 3.1 mm 3 mps 696 mmHg 98%
04:00 +8°C° 3.1 mm 3 mps 695 mmHg 98%
05:00 +8°C° 1.6 mm 3 mps 695 mmHg 98%
06:00 +8°C° 1.6 mm 2 mps 695 mmHg 98%
07:00 +9°C° 1.6 mm 2 mps 695 mmHg 97%
08:00 +9°C° 1 mm 2 mps 695 mmHg 97%
09:00 +8°C° 1 mm 3 mps 695 mmHg 97%
10:00 +8°C° 1 mm 3 mps 695 mmHg 96%
11:00 +8°C° 0.7 mm 3 mps 695 mmHg 96%
12:00 +8°C° 0.7 mm 3 mps 695 mmHg 95%
13:00 +8°C° 0.7 mm 3 mps 695 mmHg 95%
14:00 +8°C° 0.4 mm 3 mps 695 mmHg 95%
15:00 +7°C° 0.4 mm 4 mps 695 mmHg 95%
16:00 +6°C° 0.4 mm 4 mps 695 mmHg 95%
17:00 +6°C° 0.2 mm 5 mps 695 mmHg 95%
18:00 +6°C° 0.2 mm 5 mps 695 mmHg 96%
19:00 +5°C° 0.2 mm 5 mps 695 mmHg 96%
20:00 +5°C° 0.1 mm 5 mps 695 mmHg 96%
21:00 +5°C° 0.1 mm 5 mps 695 mmHg 96%
22:00 +5°C° 0.1 mm 5 mps 695 mmHg 96%
23:00 +5°C° 0.1 mm 5 mps 695 mmHg 96%

14 May, Friday

Time Temperature Precipitation Wind Pressure Humidity
00:00 +5°C° 0.1 mm 5 mps 695 mmHg 96%
01:00 +5°C° 0.1 mm 5 mps 696 mmHg 96%
02:00 +5°C° 0 mm 5 mps 696 mmHg 96%
03:00 +5°C° 0 mm 4 mps 696 mmHg 96%
04:00 +4°C° 0 mm 4 mps 696 mmHg 96%
05:00 +5°C° 0 mm 4 mps 696 mmHg 96%
06:00 +5°C° 0 mm 4 mps 696 mmHg 96%
07:00 +5°C° 0 mm 4 mps 697 mmHg 95%
08:00 +5°C° 0 mm 4 mps 697 mmHg 94%
09:00 +5°C° 0 mm 4 mps 697 mmHg 93%
10:00 +6°C° 0 mm 4 mps 698 mmHg 92%
11:00 +6°C° 0 mm 4 mps 698 mmHg 90%
12:00 +6°C° 0 mm 5 mps 698 mmHg 88%
13:00 +7°C° 0 mm 5 mps 698 mmHg 86%
14:00 +7°C° 0 mm 4 mps 699 mmHg 85%
15:00 +7°C° 0 mm 4 mps 699 mmHg 84%
16:00 +7°C° 0 mm 4 mps 699 mmHg 84%
17:00 +8°C° 0 mm 3 mps 699 mmHg 84%
18:00 +8°C° 0 mm 3 mps 699 mmHg 85%
19:00 +8°C° 0 mm 2 mps 699 mmHg 86%
20:00 +7°C° 0 mm 2 mps 699 mmHg 88%
21:00 +6°C° 0 mm 2 mps 699 mmHg 91%
22:00 +5°C° 0 mm 2 mps 699 mmHg 94%
23:00 +5°C° 0 mm 2 mps 699 mmHg 94%

15 May, Saturday

Time Temperature Precipitation Wind Pressure Humidity
00:00 +4°C° 0 mm 2 mps 699 mmHg 94%
01:00 +4°C° 0 mm 2 mps 699 mmHg 94%
02:00 +5°C° 0 mm 1 mps 700 mmHg 95%
03:00 +5°C° 0 mm 1 mps 700 mmHg 95%
04:00 +4°C° 0 mm 1 mps 700 mmHg 95%
05:00 +6°C° 0 mm 1 mps 700 mmHg 91%
06:00 +7°C° 0 mm 2 mps 700 mmHg 88%
07:00 +8°C° 0 mm 2 mps 701 mmHg 84%
08:00 +9°C° 0.1 mm 2 mps 701 mmHg 76%
09:00 +12°C° 0.1 mm 2 mps 701 mmHg 69%
10:00 +12°C° 0.1 mm 3 mps 701 mmHg 61%
11:00 +13°C° 0.2 mm 3 mps 701 mmHg 60%
12:00 +13°C° 0.2 mm 3 mps 701 mmHg 59%
13:00 +14°C° 0.2 mm 3 mps 701 mmHg 58%
14:00 +15°C° 0.2 mm 2 mps 700 mmHg 58%
15:00 +15°C° 0.2 mm 2 mps 700 mmHg 57%
16:00 +15°C° 0.2 mm 1 mps 700 mmHg 57%
17:00 +14°C° 0.4 mm 1 mps 700 mmHg 65%
18:00 +12°C° 0.4 mm 1 mps 699 mmHg 72%
19:00 +11°C° 0.4 mm 1 mps 699 mmHg 80%
20:00 +10°C° 0.5 mm 1 mps 699 mmHg 84%
21:00 +9°C° 0.5 mm 1 mps 699 mmHg 88%
22:00 +8°C° 0.5 mm 2 mps 699 mmHg 92%
23:00 +7°C° 0.1 mm 2 mps 699 mmHg 92%

16 May, Sunday

Time Temperature Precipitation Wind Pressure Humidity
00:00 +8°C° 0.1 mm 1 mps 699 mmHg 92%
01:00 +7°C° 0.1 mm 1 mps 699 mmHg 93%
02:00 +7°C° 0 mm 1 mps 699 mmHg 93%
03:00 +7°C° 0 mm 1 mps 699 mmHg 93%
04:00 +7°C° 0 mm 1 mps 699 mmHg 93%
05:00 +6°C° 0.1 mm 2 mps 699 mmHg 92%
06:00 +7°C° 0.1 mm 2 mps 699 mmHg 92%
07:00 +7°C° 0.1 mm 2 mps 700 mmHg 91%
08:00 +8°C° 0.1 mm 2 mps 700 mmHg 90%
09:00 +8°C° 0.1 mm 2 mps 700 mmHg 88%
10:00 +8°C° 0.1 mm 3 mps 700 mmHg 87%
11:00 +9°C° 0.1 mm 3 mps 700 mmHg 80%
12:00 +10°C° 0.1 mm 3 mps 700 mmHg 73%
13:00 +12°C° 0.1 mm 3 mps 700 mmHg 66%
14:00 +11°C° 0.2 mm 3 mps 700 mmHg 71%
15:00 +10°C° 0.2 mm 3 mps 700 mmHg 77%
16:00 +10°C° 0.2 mm 4 mps 699 mmHg 82%
17:00 +9°C° 0.1 mm 3 mps 699 mmHg 83%
18:00 +9°C° 0.1 mm 3 mps 699 mmHg 83%
19:00 +9°C° 0.1 mm 2 mps 699 mmHg 84%
20:00 +7°C° 0 mm 2 mps 699 mmHg 87%
21:00 +6°C° 0 mm 2 mps 700 mmHg 89%
22:00 +5°C° 0 mm 2 mps 700 mmHg 92%
23:00 +5°C° 0 mm 2 mps 700 mmHg 92%
Show more

We Need Your Consent

Meteoprog and our Service Providers may store and access personal data such as cookies, device identifiers or other similar technologies on your device and process such data to personalise content and ads, as well as provide social media features and to analyse the traffic.

  • Store and/or access information on your device

    Cookies, device identifiers or other information can be stored or accessed on your device for the purposes indicated above.

  • Personalised ads and content, ad and content measurement, audience insights, and products development

    Ads and content can be personalised based on a profile. More data can be added to better personalise ads and content. Ad and content performance can be measured. Insights about the audience who saw the ads and content can be derived. Such data can be used to develop or improve user’s experience, systems and software.

By clicking ‘I Agree’ you will allow the use of indicated cookies, device identifiers, web beacons or other similar technologies. Your settings can be changed in the browser on your device.

For certain purposes, legitimate interests may be relied on, rather than consent. You can read more about this in our Privacy and Cookie Policy.